GW1452 Weather Reports


time (UTC)temp
C
wind
direction
speed
KPH
gust
KPH
rain 1hr
cm
rain 24hr
cm
rain mn
cm
humidity
%
barometer
mb
20260506061558 20 53 3.2 9.7 0.00 0.00 0.00 63 1009.6
20260506044553 22 0 0.0 3.2 0.00 0.00 0.00 42 1009.2
20260506043049 23 55 1.6 8.0 0.00 0.00 0.00 43 1009.2
20260506041551 23 0 0.0 0.0 0.00 0.00 0.00 39 1008.9
20260506040059 24 0 0.0 0.0 0.00 0.00 0.00 37 1008.9
20260506034606 25 0 0.0 0.0 0.00 0.00 0.00 35 1008.6
20260506033049 25 0 0.0 1.6 0.00 0.00 0.00 32 1008.8
20260506031601 26 0 0.0 3.2 0.00 0.00 0.00 30 1008.7
20260506030054 26 271 0.0 3.2 0.00 0.00 0.00 28 1008.4
20260506024554 27 0 0.0 6.4 0.00 0.00 0.00 27 1008.3
20260506023054 27 278 0.0 3.2 0.00 0.00 0.00 27 1008.1
20260506021556 27 0 0.0 4.8 0.00 0.00 0.00 25 1008.0
20260506020055 28 285 0.0 6.4 0.00 0.00 0.00 24 1007.7
20260506014553 28 0 0.0 6.4 0.00 0.00 0.00 24 1007.7
20260506013055 29 288 0.0 6.4 0.00 0.00 0.00 24 1007.5
20260506011558 30 297 1.6 12.9 0.00 0.00 0.00 24 1007.2
20260506010057 30 286 3.2 12.9 0.00 0.00 0.00 24 1007.1
20260506004558 30 291 1.6 4.8 0.00 0.00 0.00 27 1006.9
20260506003049 31 267 0.0 6.4 0.00 0.00 0.00 26 1006.5
20260506001555 31 0 0.0 4.8 0.00 0.00 0.00 25 1006.4
20260506000103 31 242 1.6 6.4 0.00 0.00 0.00 26 1006.4
20260505234604 31 239 1.6 4.8 0.00 0.00 0.00 25 1006.3
20260505233108 31 263 3.2 8.0 0.00 0.00 0.00 24 1006.4
20260505231605 32 264 4.8 16.1 0.00 0.00 0.00 21 1006.4
20260505230055 32 234 3.2 12.9 0.00 0.00 0.00 23 1006.3
20260505224603 32 262 6.4 19.3 0.00 0.00 0.00 21 1006.4
20260505223057 32 172 6.4 12.9 0.00 0.00 0.00 23 1006.4
20260505221553 32 257 3.2 11.3 0.00 0.00 0.00 22 1006.5
20260505220051 32 271 4.8 16.1 0.00 0.00 0.00 22 1006.5
20260505214554 32 297 4.8 16.1 0.00 0.00 0.00 22 1006.4
20260505213053 33 269 6.4 17.7 0.00 0.00 0.00 22 1006.5
20260505211606 33 350 4.8 14.5 0.00 0.00 0.00 21 1006.7
20260505210054 33 287 3.2 19.3 0.00 0.00 0.00 23 1006.9
20260505204553 33 271 3.2 17.7 0.00 0.00 0.00 24 1007.0
20260505203058 32 273 6.4 14.5 0.00 0.00 0.00 25 1007.1
20260505201559 32 286 6.4 17.7 0.00 0.00 0.00 26 1007.1
20260505200054 32 272 4.8 14.5 0.00 0.00 0.00 28 1007.4
20260505194607 32 288 3.2 14.5 0.00 0.00 0.00 29 1007.5
20260505193052 32 5 4.8 14.5 0.00 0.00 0.00 28 1007.5
20260505191553 31 360 3.2 12.9 0.00 0.00 0.00 31 1007.6
20260505190055 31 284 6.4 20.9 0.00 0.00 0.00 31 1007.9
20260505184554 31 281 4.8 17.7 0.00 0.00 0.00 33 1008.1
20260505183055 31 0 4.8 14.5 0.00 0.00 0.00 35 1008.1
20260505181559 30 239 3.2 16.1 0.00 0.00 0.00 41 1008.3
20260505180054 30 0 0.0 8.0 0.00 0.00 0.00 47 1008.5
20260505174557 29 250 3.2 11.3 0.00 0.00 0.00 49 1008.6
20260505173058 28 268 3.2 11.3 0.00 0.00 0.00 55 1008.7
20260505171555 27 209 3.2 14.5 0.00 0.00 0.00 56 1008.8
20260505170055 27 157 1.6 14.5 0.00 0.00 0.00 64 1008.8
20260505164615 26 321 4.8 14.5 0.00 0.00 0.00 65 1008.8
20260505163102 25 0 0.0 0.0 0.00 0.00 0.00 67 1008.8
20260505161613 25 0 0.0 14.5 0.00 0.00 0.00 68 1008.8
20260505160104 24 253 1.6 16.1 0.00 0.00 0.00 73 1008.9
20260505153054 23 284 6.4 16.1 0.00 0.00 0.00 73 1008.7
20260505151558 23 239 6.4 19.3 0.00 0.00 0.00 74 1008.5
20260505130110 20 242 4.8 14.5 0.00 0.00 0.00 84 1008.0
20260505124600 20 229 1.6 9.7 0.00 0.00 0.00 85 1007.9
20260505123054 20 276 3.2 12.9 0.00 0.00 0.00 84 1007.8
20260505121552 20 227 1.6 11.3 0.00 0.00 0.00 84 1007.5
20260505120107 20 201 3.2 9.7 0.00 0.00 0.00 84 1007.3
20260505114552 20 245 3.2 11.3 0.00 0.00 0.00 83 1007.2
20260505113052 20 223 3.2 16.1 0.00 0.00 0.00 82 1007.0
20260505111550 20 198 4.8 22.5 0.00 0.00 0.00 81 1007.0
20260505101552 20 179 6.4 16.1 0.00 0.00 0.00 79 1006.7
20260505100048 20 163 4.8 20.9 0.00 0.00 0.00 78 1006.7
20260505094550 20 219 4.8 19.3 0.00 0.00 0.00 78 1006.7
20260505093053 20 209 4.8 17.7 0.00 0.00 0.00 77 1006.7
20260505091554 21 172 4.8 17.7 0.00 0.00 0.00 77 1006.4
20260505090049 21 245 8.0 19.3 0.00 0.00 0.00 77 1006.6
20260505084551 21 242 6.4 17.7 0.00 0.00 0.00 76 1007.0
20260505083054 21 231 4.8 20.9 0.00 0.00 0.00 76 1007.0
20260505081554 21 242 4.8 19.3 0.00 0.00 0.00 75 1007.2
20260505080050 21 171 6.4 16.1 0.00 0.00 0.00 75 1007.2
20260505074552 21 175 6.4 22.5 0.00 0.00 0.00 74 1007.5
20260505073052 21 285 4.8 19.3 0.00 0.00 0.00 74 1007.5
20260505071556 21 253 8.0 19.3 0.00 0.00 0.00 73 1007.8